GW7651 Weather Reports


time (UTC)temp
C
wind
direction
speed
KPH
gust
KPH
rain 1hr
cm
rain 24hr
cm
rain mn
cm
humidity
%
barometer
mb
20260906072508 20 140 0.0 0.0 0.00 0.13 0.00 94 1013.5
20260906072012 20 140 0.0 0.0 0.00 0.13 0.00 94 1013.5
20260906071519 20 140 0.0 0.0 0.00 0.13 0.00 94 1013.4
20260906071010 20 140 0.0 3.2 0.00 0.13 0.00 94 1013.5
20260906070514 20 140 0.0 3.2 0.00 0.13 0.00 94 1013.4
20260906070034 20 95 0.0 3.2 0.00 0.13 0.00 93 1013.4
20260906065515 20 95 0.0 3.2 0.00 0.13 0.00 93 1013.6
20260906065013 20 149 0.0 3.2 0.00 0.13 0.00 94 1013.5
20260906064532 20 149 0.0 0.0 0.00 0.13 0.00 94 1013.3
20260906064017 20 149 0.0 3.2 0.00 0.13 0.00 93 1013.4
20260906063515 20 149 0.0 3.2 0.00 0.13 0.00 94 1013.5
20260906063043 20 141 0.0 3.2 0.00 0.13 0.00 94 1013.5
20260906062520 20 94 0.0 3.2 0.00 0.13 0.00 94 1013.7
20260906062008 20 94 0.0 0.0 0.00 0.13 0.00 93 1013.7
20260906061516 20 94 0.0 3.2 0.00 0.13 0.00 94 1013.7
20260906061011 20 94 0.0 3.2 0.00 0.13 0.00 94 1013.8
20260906060511 20 94 0.0 3.2 0.00 0.13 0.00 94 1013.9
20260906060022 20 134 0.0 1.6 0.00 0.13 0.00 94 1014.0
20260906055514 20 55 1.6 1.6 0.00 0.13 0.00 94 1014.1
20260906055012 20 55 0.0 3.2 0.00 0.13 0.00 93 1014.1
20260906054530 20 55 1.6 3.2 0.00 0.13 0.00 94 1014.1
20260906054014 20 55 1.6 3.2 0.00 0.13 0.00 94 1014.1
20260906053514 20 55 0.0 3.2 0.00 0.13 0.00 93 1014.0
20260906053030 20 55 0.0 3.2 0.00 0.13 0.00 93 1014.1
20260906052519 20 55 0.0 3.2 0.00 0.13 0.00 93 1014.2
20260906052018 20 55 0.0 1.6 0.00 0.13 0.00 93 1014.2
20260906051550 20 55 0.0 3.2 0.00 0.13 0.00 92 1014.3
20260906051009 20 55 0.0 3.2 0.00 0.13 0.00 92 1014.3
20260906050510 20 55 0.0 0.0 0.00 0.13 0.00 92 1014.4
20260906050019 20 55 0.0 0.0 0.00 0.13 0.00 93 1014.5
20260906045512 20 55 0.0 1.6 0.00 0.13 0.00 93 1014.5
20260906045014 20 55 0.0 3.2 0.00 0.13 0.00 92 1014.5
20260906044523 21 67 1.6 3.2 0.00 0.13 0.00 92 1014.3
20260906044018 21 67 0.0 3.2 0.00 0.13 0.00 92 1014.2
20260906043515 21 67 1.6 3.2 0.00 0.13 0.00 92 1014.1
20260906043028 21 61 1.6 3.2 0.00 0.13 0.00 92 1014.1
20260906042516 21 61 1.6 3.2 0.00 0.13 0.00 92 1014.0
20260906042016 21 79 1.6 3.2 0.00 0.13 0.00 92 1014.1
20260906041531 21 82 0.0 4.8 0.00 0.13 0.00 92 1014.1
20260906041020 21 82 1.6 4.8 0.00 0.13 0.00 92 1014.0
20260906040508 21 66 1.6 4.8 0.00 0.13 0.00 92 1014.0
20260906040030 21 85 0.0 3.2 0.00 0.13 0.00 92 1014.0
20260906035510 21 85 0.0 1.6 0.00 0.13 0.13 92 1014.1
20260906035014 21 85 0.0 1.6 0.00 0.13 0.13 93 1014.1
20260906034529 21 85 0.0 3.2 0.00 0.13 0.13 93 1014.1
20260906034019 21 74 1.6 3.2 0.00 0.13 0.13 93 1014.1
20260906033512 21 74 1.6 3.2 0.00 0.13 0.13 93 1014.2
20260906033028 21 74 1.6 3.2 0.00 0.13 0.13 93 1014.3
20260906032514 21 74 0.0 1.6 0.00 0.13 0.13 93 1014.3
20260906032014 21 74 0.0 1.6 0.00 0.13 0.13 92 1014.4
20260906031538 21 74 0.0 3.2 0.00 0.13 0.13 92 1014.5
20260906031019 21 74 0.0 3.2 0.00 0.13 0.13 92 1014.5
20260906030519 21 74 0.0 3.2 0.00 0.13 0.13 92 1014.5
20260906030012 21 74 1.6 3.2 0.00 0.13 0.13 92 1014.4
20260906025509 21 79 1.6 3.2 0.00 0.13 0.13 92 1014.3
20260906025010 21 81 0.0 0.0 0.00 0.13 0.13 92 1014.4
20260906024511 21 81 0.0 0.0 0.00 0.13 0.13 91 1014.4
20260906024007 21 81 0.0 0.0 0.00 0.13 0.13 92 1014.6
20260906023508 21 81 0.0 0.0 0.00 0.13 0.13 91 1014.5
20260906023014 21 81 0.0 0.0 0.00 0.13 0.13 91 1014.5
20260906022510 21 81 0.0 0.0 0.00 0.13 0.13 91 1014.4
20260906022008 21 81 0.0 0.0 0.00 0.13 0.13 91 1014.3
20260906021515 21 81 0.0 0.0 0.00 0.13 0.13 91 1014.3
20260906021004 21 81 0.0 1.6 0.00 0.13 0.13 91 1014.4
20260906020507 22 81 0.0 3.2 0.00 0.13 0.13 90 1014.4
20260906020017 22 81 1.6 3.2 0.00 0.13 0.13 90 1014.3
20260906015508 22 65 0.0 3.2 0.00 0.13 0.13 90 1014.4
20260906015009 22 65 1.6 3.2 0.00 0.13 0.13 90 1014.2
20260906014525 22 87 1.6 1.6 0.00 0.13 0.13 90 1014.2
20260906014009 22 87 1.6 1.6 0.00 0.13 0.13 89 1014.2
20260906013508 22 87 1.6 1.6 0.00 0.13 0.13 89 1014.2
20260906013015 22 121 0.0 0.0 0.00 0.13 0.13 87 1014.2
20260906012508 22 121 0.0 0.0 0.00 0.13 0.13 86 1014.2
20260906012008 22 121 0.0 0.0 0.00 0.13 0.13 88 1014.2
20260906011512 22 121 0.0 0.0 0.00 0.13 0.13 89 1014.2
20260906011012 22 121 0.0 0.0 0.00 0.13 0.13 87 1014.1
20260906010511 22 121 0.0 0.0 0.00 0.13 0.13 87 1014.0
20260906010011 22 121 0.0 0.0 0.00 0.13 0.13 86 1014.0
20260906005506 23 121 0.0 0.0 0.00 0.13 0.13 85 1013.8
20260906005008 23 121 0.0 0.0 0.00 0.13 0.13 85 1013.8
20260906004516 23 121 0.0 0.0 0.00 0.13 0.13 85 1013.7
20260906004013 23 121 0.0 0.0 0.00 0.13 0.13 86 1013.7
20260906003510 23 121 0.0 0.0 0.00 0.13 0.13 85 1013.6
20260906003014 23 121 0.0 0.0 0.00 0.13 0.13 85 1013.4
20260906002507 23 121 0.0 0.0 0.00 0.13 0.13 84 1013.4
20260906002012 23 121 0.0 0.0 0.00 0.13 0.13 84 1013.4
20260906001518 23 121 0.0 0.0 0.00 0.13 0.13 83 1013.5
20260906001011 24 121 0.0 0.0 0.00 0.13 0.13 82 1013.5
20260906000511 24 121 0.0 3.2 0.00 0.13 0.13 81 1013.5
20260906000019 25 121 0.0 3.2 0.00 0.13 0.13 80 1013.4
20260905235507 25 121 0.0 1.6 0.00 0.13 0.13 80 1013.5
20260905235006 25 121 1.6 3.2 0.00 0.13 0.13 78 1013.4
20260905234515 25 116 0.0 3.2 0.00 0.13 0.13 78 1013.3
20260905234008 25 9 0.0 3.2 0.00 0.13 0.13 77 1013.4
20260905233512 26 11 0.0 0.0 0.00 0.13 0.13 75 1013.3
20260905233018 26 360 0.0 3.2 0.00 0.13 0.13 75 1013.1
20260905232512 26 5 0.0 3.2 0.00 0.13 0.13 74 1013.3
20260905232012 27 217 0.0 3.2 0.00 0.13 0.13 72 1013.3
20260905231523 27 267 1.6 3.2 0.00 0.13 0.13 70 1013.3
20260905231010 27 213 0.0 3.2 0.00 0.13 0.13 69 1013.2
20260905230509 27 304 0.0 4.8 0.00 0.13 0.13 67 1013.3
20260905230021 27 333 1.6 4.8 0.00 0.13 0.13 67 1013.4
20260905225511 27 297 0.0 3.2 0.00 0.13 0.13 67 1013.5
20260905225012 27 252 1.6 3.2 0.00 0.13 0.13 66 1013.6
20260905224511 27 9 0.0 3.2 0.00 0.13 0.13 65 1013.5
20260905224008 28 271 1.6 6.4 0.00 0.13 0.13 64 1013.6
20260905223508 28 321 3.2 6.4 0.00 0.13 0.13 66 1013.7
20260905223016 28 263 3.2 9.7 0.00 0.13 0.13 65 1013.7
20260905222512 28 270 1.6 9.7 0.00 0.13 0.13 65 1013.8
20260905222015 28 306 3.2 12.9 0.00 0.13 0.13 65 1013.8
20260905221518 28 279 3.2 12.9 0.00 0.13 0.13 65 1013.7
20260905221012 28 271 1.6 12.9 0.00 0.13 0.13 66 1013.7
20260905220513 28 344 3.2 12.9 0.00 0.13 0.13 65 1013.7
20260905220017 28 311 4.8 8.0 0.00 0.13 0.13 66 1013.6
20260905215511 28 224 4.8 8.0 0.00 0.13 0.13 65 1013.7
20260905215013 28 286 3.2 6.4 0.00 0.13 0.13 65 1013.7
20260905214526 28 289 3.2 6.4 0.00 0.13 0.13 64 1013.7
20260905214014 28 245 3.2 8.0 0.00 0.13 0.13 64 1013.7
20260905213512 28 225 3.2 11.3 0.00 0.13 0.13 65 1013.5
20260905213018 28 292 3.2 12.9 0.00 0.13 0.13 65 1013.5
20260905212509 28 221 9.7 12.9 0.00 0.13 0.13 65 1013.4
20260905212012 28 256 3.2 9.7 0.00 0.13 0.13 65 1013.4
20260905211519 28 201 3.2 14.5 0.00 0.13 0.13 67 1013.5
20260905211014 28 214 3.2 14.5 0.00 0.13 0.13 67 1013.6
20260905210514 27 239 6.4 14.5 0.00 0.13 0.13 67 1013.6
20260905210031 27 273 4.8 9.7 0.00 0.13 0.13 67 1013.7
20260905205514 27 257 0.0 9.7 0.00 0.13 0.13 70 1013.6
20260905205015 28 275 4.8 12.9 0.00 0.13 0.13 69 1013.5
20260905204531 28 219 4.8 12.9 0.00 0.13 0.13 68 1013.5
20260905204011 28 238 4.8 8.0 0.00 0.13 0.13 67 1013.6
20260905203511 28 287 3.2 6.4 0.00 0.13 0.13 66 1013.6
20260905203020 28 5 1.6 11.3 0.00 0.13 0.13 67 1013.7
20260905202511 28 315 3.2 11.3 0.00 0.13 0.13 66 1013.7
20260905202010 27 236 1.6 8.0 0.00 0.13 0.13 68 1013.8
20260905201519 27 242 3.2 6.4 0.00 0.13 0.13 68 1013.9
20260905201012 27 204 1.6 9.7 0.00 0.13 0.13 67 1013.9
20260905200514 27 226 3.2 12.9 0.00 0.13 0.13 66 1013.8
20260905200025 27 155 1.6 12.9 0.00 0.13 0.13 71 1013.8
20260905195511 27 272 3.2 9.7 0.00 0.13 0.13 68 1013.7
20260905195011 27 280 1.6 9.7 0.00 0.13 0.13 69 1013.9
20260905194521 26 158 1.6 9.7 0.00 0.13 0.13 69 1014.1
20260905194014 27 222 3.2 9.7 0.00 0.13 0.13 69 1014.2
20260905193512 27 183 1.6 6.4 0.00 0.13 0.13 69 1014.2
20260905193023 26 249 3.2 6.4 0.00 0.13 0.13 74 1014.4
20260905192512 26 230 3.2 6.4 0.00 0.13 0.13 72 1014.4
20260905192007 26 360 3.2 8.0 0.00 0.13 0.13 73 1014.5
20260905191522 26 190 1.6 8.0 0.00 0.13 0.13 73 1014.4
20260905191012 26 151 1.6 4.8 0.00 0.13 0.13 72 1014.6
20260905190512 26 242 1.6 4.8 0.00 0.13 0.13 71 1014.6
20260905190024 26 54 1.6 4.8 0.00 0.13 0.13 75 1014.7
20260905185517 25 58 3.2 8.0 0.00 0.13 0.13 74 1014.8
20260905185019 25 109 0.0 8.0 0.00 0.13 0.13 74 1014.9
20260905184524 25 159 3.2 6.4 0.00 0.13 0.13 72 1015.1
20260905184021 25 44 1.6 3.2 0.00 0.13 0.13 82 1015.2
20260905183515 24 74 0.0 3.2 0.00 0.13 0.13 80 1015.3
20260905183023 24 38 1.6 3.2 0.00 0.13 0.13 84 1015.4
20260905182512 23 5 0.0 3.2 0.00 0.13 0.13 87 1015.5
20260905182012 22 92 0.0 3.2 0.00 0.13 0.13 87 1015.6
20260905181528 22 66 1.6 3.2 0.00 0.13 0.13 88 1015.8
20260905181009 22 65 1.6 3.2 0.00 0.13 0.13 1015.9
20260905180512 21 65 0.0 3.2 0.00 0.13 0.13 1016.1
20260905180015 21 65 0.0 3.2 0.00 0.13 0.13 1016.3
20260905175509 21 65 0.0 1.6 0.00 0.13 0.13 91 1016.6
20260905175008 21 65 0.0 3.2 0.00 0.13 0.13 91 1016.7
20260905174520 21 65 0.0 3.2 0.00 0.13 0.13 91 1016.8
20260905174011 21 65 0.0 3.2 0.00 0.13 0.13 91 1017.1
20260905173511 21 325 0.0 3.2 0.03 0.13 0.13 91 1017.3
20260905173012 21 325 0.0 3.2 0.03 0.13 0.13 91 1017.4
20260905172508 21 325 0.0 6.4 0.08 0.13 0.13 90 1017.3
20260905172008 21 38 0.0 6.4 0.13 0.13 0.13 90 1017.2
20260905171524 21 145 1.6 8.0 0.13 0.13 0.13 89 1017.3
20260905171008 21 190 1.6 8.0 0.13 0.13 0.13 89 1017.3
20260905170508 21 153 3.2 9.7 0.13 0.13 0.13 90 1017.2
20260905170019 21 175 6.4 9.7 0.13 0.13 0.13 90 1017.5
20260905165509 20 173 0.0 8.0 0.13 0.13 0.13 89 1017.4
20260905165015 21 67 1.6 8.0 0.13 0.13 0.13 89 1017.4
20260905164516 21 179 4.8 6.4 0.13 0.13 0.13 88 1017.5
20260905164009 21 296 3.2 8.0 0.13 0.13 0.13 86 1017.6
20260905163508 21 47 4.8 25.7 0.10 0.10 0.10 83 1017.5
20260905163021 22 336 6.4 25.7 0.10 0.10 0.10 81 1017.8
20260905162512 23 39 17.7 24.1 0.05 0.05 0.05 78 1017.3
20260905162007 24 38 9.7 33.8 0.00 0.00 0.00 75 1017.0
20260905161512 25 88 6.4 35.4 0.00 0.00 0.00 71 1017.2
20260905161009 26 40 19.3 35.4 0.00 0.00 0.00 68 1017.3
20260905160511 27 5 4.8 9.7 0.00 0.00 0.00 73 1016.5
20260905160016 27 18 1.6 3.2 0.00 0.00 0.00 75 1016.4
20260905155512 28 268 0.0 3.2 0.00 0.00 0.00 74 1016.3
20260905155009 28 286 0.0 3.2 0.00 0.00 0.00 71 1016.3
20260905154518 28 329 0.0 3.2 0.00 0.00 0.00 71 1016.4
20260905154012 28 304 0.0 3.2 0.00 0.00 0.00 69 1016.4
20260905153511 28 350 0.0 4.8 0.00 0.00 0.00 70 1016.6
20260905153016 28 333 3.2 6.4 0.00 0.00 0.00 67 1016.7
20260905152510 28 352 1.6 6.4 0.00 0.00 0.00 67 1016.6
20260905152011 28 311 3.2 6.4 0.00 0.00 0.00 68 1016.5
20260905151518 28 249 1.6 9.7 0.00 0.00 0.00 68 1016.4
20260905151009 28 300 4.8 9.7 0.00 0.00 0.00 68 1016.4
20260905150506 28 229 3.2 9.7 0.00 0.00 0.00 66 1016.4
20260905150021 28 279 3.2 9.7 0.00 0.00 0.00 67 1016.3
20260905145509 28 285 1.6 8.0 0.00 0.00 0.00 68 1016.1
20260905145011 28 219 4.8 8.0 0.00 0.00 0.00 69 1016.1
20260905144518 28 221 3.2 9.7 0.00 0.00 0.00 69 1016.0
20260905144014 28 236 1.6 9.7 0.00 0.00 0.00 72 1016.0
20260905143510 28 232 3.2 9.7 0.00 0.00 0.00 71 1016.0
20260905143021 28 132 0.0 4.8 0.00 0.00 0.00 74 1016.1
20260905142512 28 230 3.2 6.4 0.00 0.00 0.00 72 1016.2
20260905142018 27 207 1.6 9.7 0.00 0.00 0.00 71 1016.2
20260905141518 27 279 1.6 9.7 0.00 0.00 0.00 72 1016.2
20260905141010 27 219 3.2 6.4 0.00 0.00 0.00 72 1016.3
20260905140512 27 196 0.0 9.7 0.00 0.00 0.00 74 1016.3
20260905140016 27 211 3.2 9.7 0.00 0.00 0.00 76 1016.3
20260905135509 27 209 4.8 8.0 0.00 0.00 0.00 73 1016.2
20260905135014 27 315 0.0 6.4 0.00 0.00 0.00 75 1016.1
20260905134524 26 236 3.2 8.0 0.00 0.00 0.00 74 1016.2
20260905134012 26 132 1.6 8.0 0.00 0.00 0.00 77 1016.2
20260905133511 25 57 1.6 3.2 0.00 0.00 0.00 81 1016.2
20260905133020 25 247 1.6 3.2 0.00 0.00 0.00 81 1016.3
20260905132513 25 69 0.0 3.2 0.00 0.00 0.00 82 1016.4
20260905132012 25 69 0.0 3.2 0.00 0.00 0.00 84 1016.4
20260905131534 24 69 0.0 3.2 0.00 0.00 0.00 84 1016.6
20260905131010 24 69 0.0 3.2 0.00 0.00 0.00 84 1016.6
20260905130513 23 69 0.0 3.2 0.00 0.00 0.00 85 1016.6
20260905130023 23 69 0.0 1.6 0.00 0.00 0.00 86 1016.6
20260905125512 23 59 1.6 3.2 0.00 0.00 0.00 87 1016.6
20260905125009 23 53 1.6 3.2 0.00 0.00 0.00 87 1016.6
20260905124516 23 53 0.0 1.6 0.00 0.00 0.00 87 1016.6
20260905124015 23 53 0.0 3.2 0.00 0.00 0.00 88 1016.6
20260905123513 22 53 1.6 4.8 0.00 0.00 0.00 89 1016.6
20260905123033 22 184 0.0 4.8 0.00 0.00 0.00 90 1016.5
20260905122513 22 149 0.0 3.2 0.00 0.00 0.00 91 1016.5
20260905122013 21 99 0.0 3.2 0.00 0.00 0.00 93 1016.5
20260905121523 21 71 0.0 3.2 0.00 0.00 0.00 93 1016.5
20260905121014 21 71 1.6 3.2 0.00 0.00 0.00 94 1016.6
20260905120515 21 71 0.0 3.2 0.00 0.00 0.00 94 1016.4
20260905120026 20 71 0.0 3.2 0.00 0.00 0.00 94 1016.3
20260905115511 20 71 0.0 0.0 0.00 0.00 0.00 95 1016.2
20260905115012 20 71 0.0 1.6 0.00 0.00 0.00 95 1016.2
20260905114519 20 71 0.0 1.6 0.00 0.00 0.00 95 1016.1
20260905114010 20 71 0.0 1.6 0.00 0.00 0.00 95 1016.0
20260905113511 20 71 0.0 0.0 0.00 0.00 0.00 95 1016.1
20260905113024 20 71 0.0 0.0 0.00 0.00 0.00 95 1016.0
20260905112513 20 71 0.0 0.0 0.00 0.00 0.00 95 1015.9
20260905112016 20 71 0.0 0.0 0.00 0.00 0.00 95 1015.9
20260905111523 20 71 0.0 0.0 0.00 0.00 0.00 95 1015.9
20260905111013 20 71 0.0 0.0 0.00 0.00 0.00 95 1015.8
20260905110513 20 71 0.0 3.2 0.00 0.00 0.00 95 1015.7
20260905110025 20 71 0.0 3.2 0.00 0.00 0.00 95 1015.6
20260905105514 20 71 0.0 3.2 0.00 0.00 0.00 95 1015.6
20260905105012 20 71 0.0 0.0 0.00 0.00 0.00 95 1015.6
20260905104526 20 71 0.0 0.0 0.00 0.00 0.00 94 1015.6
20260905104012 20 71 0.0 0.0 0.00 0.00 0.00 94 1015.6
20260905103510 20 71 0.0 0.0 0.00 0.00 0.00 94 1015.5
20260905103025 20 71 0.0 3.2 0.00 0.00 0.00 95 1015.5
20260905102516 20 71 0.0 3.2 0.00 0.00 0.00 95 1015.4
20260905102013 20 71 0.0 1.6 0.00 0.00 0.00 95 1015.4
20260905101526 20 71 0.0 0.0 0.00 0.00 0.00 94 1015.5
20260905101015 20 71 0.0 0.0 0.00 0.00 0.00 94 1015.4
20260905100513 20 71 0.0 0.0 0.00 0.00 0.00 95 1015.3
20260905100029 20 71 0.0 0.0 0.00 0.00 0.00 94 1015.3
20260905095515 20 71 0.0 0.0 0.00 0.00 0.00 95 1015.3
20260905095015 20 71 0.0 0.0 0.00 0.00 0.00 94 1015.2
20260905094552 20 71 0.0 0.0 0.00 0.00 0.00 94 1015.2
20260905094015 20 71 0.0 0.0 0.00 0.00 0.00 94 1015.1
20260905093516 20 71 0.0 0.0 0.00 0.00 0.00 94 1015.1
20260905093028 20 71 0.0 0.0 0.00 0.00 0.00 94 1015.1
20260905092516 20 71 0.0 0.0 0.00 0.00 0.00 94 1015.0
20260905092016 20 71 0.0 0.0 0.00 0.00 0.00 94 1015.0
20260905091525 20 71 0.0 0.0 0.00 0.00 0.00 94 1014.9
20260905091015 20 71 0.0 0.0 0.00 0.00 0.00 94 1015.0
20260905090515 20 71 0.0 0.0 0.00 0.00 0.00 94 1015.0
20260905090009 20 71 0.0 0.0 0.00 0.00 0.00 94 1015.0
20260905085504 20 71 0.0 0.0 0.00 0.00 0.00 94 1015.0
20260905085004 20 71 0.0 0.0 0.00 0.00 0.00 94 1015.1
20260905084508 20 71 0.0 0.0 0.00 0.00 0.00 94 1015.1
20260905084008 20 71 0.0 0.0 0.00 0.00 0.00 94 1015.1
20260905083508 20 71 0.0 0.0 0.00 0.00 0.00 94 1015.2
20260905083016 20 71 0.0 3.2 0.00 0.00 0.00 94 1015.3
20260905082509 20 71 0.0 3.2 0.00 0.00 0.00 94 1015.1
20260905082011 20 71 0.0 3.2 0.00 0.00 0.00 94 1015.1
20260905081523 20 71 0.0 3.2 0.00 0.00 0.00 93 1015.2
20260905081016 21 71 0.0 0.0 0.00 0.00 0.00 93 1015.2
20260905080518 21 71 0.0 0.0 0.00 0.00 0.00 93 1015.2
20260905080006 21 71 0.0 0.0 0.00 0.00 0.00 93 1015.3
20260905075504 21 71 0.0 0.0 0.00 0.00 0.00 93 1015.4
20260905075004 21 71 0.0 0.0 0.00 0.00 0.00 93 1015.5
20260905074510 21 71 0.0 0.0 0.00 0.00 0.00 93 1015.5
20260905074008 21 71 0.0 0.0 0.00 0.00 0.00 93 1015.5
20260905073511 21 71 0.0 0.0 0.00 0.00 0.00 93 1015.5
20260905073013 21 71 0.0 3.2 0.00 0.00 0.00 93 1015.6